Weather History for KPOV - February, 2013

Change the Weather History Date:

Thursday, February 21, 2013

  Actual Average (KCAK) Record (KCAK)
Temperature  
Mean Temperature 18 °F 30 °F  
Max Temperature 22 °F 38 °F 69 °F (1997)
Min Temperature 15 °F 22 °F -4 °F (1968)
Degree Days  
Heating Degree Days 46 35  
Month to date heating degree days 772  
Since 1 July heating degree days 4308  
Cooling Degree Days 0 0  
Month to date cooling degree days 0  
Year to date cooling degree days 0  
Moisture  
Dew Point 13 °F    
Average Humidity 77    
Maximum Humidity 91    
Minimum Humidity 62    
Precipitation  
Precipitation 0.00 in 0.08 in - ()
Month to date precipitation 1.70  
Year to date precipitation 4.31  
Snow  
Snow 0.00 in 0.40 in - ()
Month to date snowfall 7.8  
Since 1 July snowfall 33.8  
Snow Depth -    
Sea Level Pressure  
Sea Level Pressure 30.25 in    
Wind  
Wind Speed 7 mph (NW)    
Max Wind Speed 10 mph    
Max Gust Speed -    
Visibility 8 miles    
Events Snow    
T = Trace of Precipitation, MM = Missing Value Source: NWS Daily Summary

Daily Weather History Graph

Daily Weather History Graph

Search for Another Location

Airport or City:

Trip Planner

Search our weather history database for the weather conditions in past years. The results will help you decide how hot, cold, wet, or windy it might be!

Date:

Astronomy

Feb. 21, 2013 Rise Set
Actual Time 7:10 AM EST 6:06 PM EST
Civil Twilight 6:43 AM EST 6:34 PM EST
Nautical Twilight 6:10 AM EST 7:06 PM EST
Astronomical Twilight 5:39 AM EST 7:38 PM EST
Moon 2:18 PM EST (2/21) 4:16 AM EST (2/21)
Length of Visible Light 11h 51m
Length of Day
10h 55m
Waxing Gibbous, 83% of the Moon is Illuminated
Feb 21
Waxing Gibbous
Feb 25
Full
Mar 4
Last Quarter
Mar 11
New
Mar 19
First Quarter

Hourly Weather History & Observations

Time (EST) Temp. Windchill Dew Point Humidity Pressure Visibility Wind Dir Wind Speed Gust Speed Precip Events Conditions
12:16 AM 18.5 °F 9.3 °F 15.3 °F 87% 30.15 in 3.0 mi West 6.9 mph - N/A Snow Light Snow
12:36 AM 18.5 °F 8.4 °F 15.3 °F 87% 30.15 in 4.0 mi West 8.1 mph - N/A Snow Light Snow
12:56 AM 18.5 °F 8.4 °F 15.1 °F 86% 30.15 in 5.0 mi West 8.1 mph - N/A Snow Light Snow
1:16 AM 18.5 °F 8.4 °F 14.9 °F 86% 30.15 in 4.0 mi West 8.1 mph - N/A Snow Light Snow
1:35 AM 18.5 °F 8.4 °F 14.9 °F 86% 30.15 in 2.5 mi West 8.1 mph - N/A Snow Light Snow
1:56 AM 18.3 °F 8.2 °F 15.1 °F 87% 30.16 in 5.0 mi West 8.1 mph - N/A Snow Light Snow
2:16 AM 18.5 °F 8.4 °F 15.4 °F 88% 30.16 in 1.5 mi West 8.1 mph - N/A Snow Light Snow
2:35 AM 18.5 °F 8.4 °F 15.4 °F 88% 30.16 in 4.0 mi West 8.1 mph - N/A Snow Light Snow
2:56 AM 18.5 °F 8.4 °F 15.6 °F 89% 30.16 in 2.0 mi West 8.1 mph - N/A Snow Light Snow
3:16 AM 18.7 °F 7.8 °F 15.8 °F 89% 30.17 in 2.5 mi West 9.2 mph - N/A Snow Light Snow
3:35 AM 18.7 °F 10.6 °F 15.8 °F 89% 30.17 in 3.0 mi West 5.8 mph - N/A Snow Light Snow
3:56 AM 18.5 °F 9.3 °F 15.8 °F 89% 30.16 in 3.0 mi West 6.9 mph - N/A Snow Light Snow
4:16 AM 18.5 °F 8.4 °F 16.0 °F 90% 30.16 in 3.0 mi West 8.1 mph - N/A Snow Light Snow
4:35 AM 18.9 °F 10.8 °F 16.3 °F 90% 30.17 in 3.0 mi West 5.8 mph - N/A Snow Light Snow
4:56 AM 18.9 °F 10.8 °F 16.5 °F 91% 30.18 in 4.0 mi West 5.8 mph - N/A Snow Light Snow
5:15 AM 18.9 °F 9.8 °F 16.5 °F 91% 30.18 in 3.0 mi West 6.9 mph - N/A Snow Light Snow
5:35 AM 19.0 °F 11.1 °F 16.7 °F 91% 30.19 in 2.5 mi West 5.8 mph - N/A Snow Light Snow
5:56 AM 19.2 °F 11.3 °F 17.1 °F 91% 30.20 in 4.0 mi WNW 5.8 mph - N/A Snow Light Snow
6:16 AM 19.0 °F 9.0 °F 15.6 °F 87% 30.22 in 4.0 mi WNW 8.1 mph - N/A Snow Light Snow
6:55 AM 17.6 °F 5.7 °F 13.1 °F 83% 30.23 in 5.0 mi NW 10.4 mph - N/A Snow Light Snow
7:16 AM 17.1 °F 6.6 °F 12.2 °F 81% 30.23 in 7.0 mi NW 8.1 mph - N/A Snow Light Snow
7:35 AM 16.5 °F 8.1 °F 11.7 °F 81% 30.24 in 3.0 mi NW 5.8 mph - N/A Snow Light Snow
7:56 AM 16.3 °F 6.7 °F 11.3 °F 81% 30.25 in 3.0 mi NW 6.9 mph - N/A Snow Light Snow
8:16 AM 16.2 °F 5.5 °F 10.6 °F 79% 30.26 in 4.0 mi WNW 8.1 mph - N/A Snow Light Snow
8:35 AM 16.7 °F 6.2 °F 10.6 °F 77% 30.29 in 10.0 mi WNW 8.1 mph - N/A Snow Light Snow
8:56 AM 17.2 °F 8.9 °F 10.9 °F 76% 30.29 in 5.0 mi NNW 5.8 mph - N/A Snow Light Snow
9:16 AM 17.6 °F 9.3 °F 11.1 °F 76% 30.29 in 5.0 mi NNW 5.8 mph - N/A Snow Light Snow
9:35 AM 18.0 °F 6.9 °F 10.2 °F 72% 30.29 in 5.0 mi NW 9.2 mph - N/A Snow Light Snow
9:56 AM 18.3 °F 6.6 °F 9.5 °F 68% 30.28 in 7.0 mi NW 10.4 mph - N/A   Overcast
10:16 AM 18.5 °F 8.4 °F 10.2 °F 70% 30.28 in 10.0 mi NW 8.1 mph - N/A Snow Light Snow
10:36 AM 19.2 °F 9.3 °F 9.7 °F 66% 30.28 in 10.0 mi NW 8.1 mph - N/A Snow Light Snow
10:56 AM 19.4 °F 10.4 °F 10.0 °F 67% 30.29 in 10.0 mi NW 6.9 mph - N/A   Overcast
11:16 AM 19.9 °F 11.1 °F 10.4 °F 67% 30.29 in 10.0 mi WNW 6.9 mph - N/A Snow Light Snow
11:35 AM 20.1 °F 12.3 °F 10.8 °F 67% 30.30 in 10.0 mi NW 5.8 mph - N/A   Overcast
11:55 AM 20.1 °F 10.3 °F 10.0 °F 65% 30.30 in 10.0 mi West 8.1 mph - N/A   Overcast
12:16 PM 20.5 °F 14.0 °F 10.0 °F 64% 30.30 in 10.0 mi NW 4.6 mph - N/A Snow Light Snow
12:35 PM 20.7 °F 15.8 °F 9.9 °F 63% 30.29 in 10.0 mi NNW 3.5 mph - N/A Snow Light Snow
12:56 PM 21.0 °F 13.4 °F 10.0 °F 63% 30.30 in 10.0 mi West 5.8 mph - N/A   Overcast
1:16 PM 21.2 °F 14.9 °F 10.0 °F 62% 30.27 in 10.0 mi NNE 4.6 mph - N/A   Overcast
1:35 PM 21.6 °F 14.0 °F 10.2 °F 62% 30.28 in 10.0 mi NW 5.8 mph - N/A   Overcast
1:56 PM 21.6 °F 15.3 °F 10.2 °F 62% 30.28 in 10.0 mi West 4.6 mph - N/A   Overcast
2:16 PM 21.7 °F 15.5 °F 11.1 °F 64% 30.29 in 10.0 mi WNW 4.6 mph - N/A   Overcast
2:35 PM 21.9 °F 17.2 °F 10.8 °F 62% 30.28 in 10.0 mi West 3.5 mph - N/A   Overcast
2:56 PM 22.1 °F 14.7 °F 11.5 °F 64% 30.27 in 10.0 mi NNE 5.8 mph - N/A   Overcast
3:12 PM 21.7 °F 17.0 °F 11.7 °F 65% 30.28 in 10.0 mi NNW 3.5 mph - N/A   Overcast
3:35 PM 21.6 °F 16.8 °F 11.5 °F 65% 30.27 in 10.0 mi NNE 3.5 mph - N/A   Overcast
3:56 PM 21.9 °F 15.7 °F 11.8 °F 65% 30.26 in 10.0 mi NE 4.6 mph - N/A   Overcast
4:16 PM 22.1 °F 17.4 °F 12.0 °F 65% 30.25 in 10.0 mi NNE 3.5 mph - N/A   Overcast
4:35 PM 21.9 °F 15.7 °F 11.7 °F 65% 30.26 in 10.0 mi NE 4.6 mph - N/A   Overcast
4:56 PM 21.2 °F - 11.7 °F 67% 30.27 in 10.0 mi Calm Calm - N/A   Overcast
5:16 PM 21.2 °F - 11.8 °F 67% 30.30 in 10.0 mi Calm Calm - N/A   Overcast
5:35 PM 21.2 °F 16.4 °F 12.0 °F 68% 30.31 in 10.0 mi West 3.5 mph - N/A   Overcast
5:56 PM 20.7 °F - 12.0 °F 69% 30.30 in 10.0 mi Calm Calm - N/A   Mostly Cloudy
6:16 PM 19.9 °F 14.9 °F 12.2 °F 72% 30.31 in 10.0 mi North 3.5 mph - N/A   Clear
6:35 PM 19.6 °F - 12.0 °F 72% 30.30 in 10.0 mi Calm Calm - N/A   Clear
6:56 PM 19.2 °F - 11.8 °F 73% 30.31 in 10.0 mi Calm Calm - N/A   Clear
7:16 PM 18.1 °F - 12.0 °F 77% 30.30 in 10.0 mi Calm Calm - N/A   Clear
7:35 PM 17.2 °F - 11.5 °F 78% 30.31 in 10.0 mi Calm Calm - N/A   Clear
7:56 PM 16.0 °F - 11.7 °F 83% 30.31 in 10.0 mi Calm Calm - N/A   Clear
8:16 PM 15.1 °F 5.2 °F 10.2 °F 81% 30.30 in 10.0 mi NE 6.9 mph - N/A   Clear
8:35 PM 17.6 °F 8.2 °F 12.0 °F 79% 30.29 in 10.0 mi ENE 6.9 mph - N/A   Clear
8:56 PM 17.8 °F 8.5 °F 12.2 °F 79% 30.28 in 10.0 mi ENE 6.9 mph - N/A   Clear
9:16 PM 17.6 °F 6.4 °F 12.2 °F 79% 30.27 in 10.0 mi ENE 9.2 mph - N/A   Clear
9:36 PM 17.6 °F 5.7 °F 12.2 °F 79% 30.26 in 10.0 mi ENE 10.4 mph - N/A   Clear
9:56 PM 17.4 °F 6.2 °F 12.2 °F 80% 30.27 in 10.0 mi East 9.2 mph - N/A   Clear
10:16 PM 17.4 °F 6.2 °F 12.2 °F 80% 30.25 in 10.0 mi East 9.2 mph - N/A   Clear
10:35 PM 17.6 °F 7.3 °F 12.6 °F 81% 30.25 in 10.0 mi East 8.1 mph - N/A   Clear
10:56 PM 17.6 °F 5.7 °F 12.9 °F 82% 30.24 in 10.0 mi East 10.4 mph - N/A   Clear
11:16 PM 17.6 °F 6.4 °F 13.1 °F 83% 30.24 in 10.0 mi East 9.2 mph - N/A   Clear
11:35 PM 17.6 °F 5.7 °F 13.1 °F 83% 30.23 in 10.0 mi East 10.4 mph - N/A   Clear
11:56 PM 17.6 °F 6.4 °F 13.1 °F 83% 30.22 in 10.0 mi East 9.2 mph - N/A   Clear